DW4879 Weather Reports


Display with metric or nautical units.
time (UTC)temp
F
wind
direction
speed
MPH
gust
MPH
rain 1hr
in
rain 24hr
in
rain mn
in
humidity
%
barometer
mb
20260905014605 77 202 0.0 2.0 0.00 0.01 0.01 44 1020.9
20260905014007 77 202 0.0 2.0 0.00 0.01 0.01 43 1020.9
20260905013519 78 202 0.0 2.0 0.00 0.01 0.01 43 1020.9
20260905013030 78 202 0.0 2.0 0.00 0.01 0.01 43 1021.0
20260905012531 78 209 1.0 2.0 0.00 0.01 0.01 42 1021.1
20260905012039 78 208 1.0 3.0 0.00 0.01 0.01 42 1021.1
20260905011625 78 233 0.0 5.0 0.00 0.01 0.01 43 1021.1
20260905011055 79 228 2.0 5.0 0.01 0.01 0.01 42 1021.1
20260905010544 79 213 3.0 5.0 0.01 0.01 0.01 41 1021.1
20260905010053 79 206 1.0 5.0 0.01 0.01 0.01 42 1021.1
20260905005600 79 224 1.0 5.0 0.01 0.01 0.01 43 1021.1
20260905005004 80 219 2.0 8.0 0.01 0.01 0.01 42 1021.1
20260905004600 80 279 4.0 8.0 0.01 0.01 0.01 42 1021.1
20260905004002 80 188 4.0 7.0 0.01 0.01 0.01 43 1021.0
20260905003600 80 169 3.0 6.0 0.01 0.01 0.01 45 1021.0
20260905003003 80 194 3.0 8.0 0.01 0.01 0.01 46 1021.0
20260905002600 80 201 4.0 8.0 0.01 0.01 0.01 45 1021.1
20260905002051 80 66 4.0 15.0 0.01 0.01 0.01 40 1021.0
20260905001601 81 173 6.0 15.0 0.01 0.01 0.01 41 1021.0
20260905001050 83 169 4.0 6.0 0.00 0.00 0.00 37 1021.0
20260905000538 84 140 3.0 5.0 0.00 0.00 0.00 33 1021.0
20260905000046 84 190 2.0 6.0 0.00 0.00 0.00 32 1020.9
20260904235556 84 190 2.0 6.0 0.00 0.00 0.00 32 1020.7
20260904235103 84 170 1.0 5.0 0.00 0.00 0.00 32 1020.8
20260904234552 84 200 1.0 6.0 0.00 0.00 0.00 32 1020.8
20260904234101 84 109 2.0 7.0 0.00 0.00 0.00 32 1020.8
20260904233553 83 94 2.0 6.0 0.00 0.00 0.00 33 1020.9
20260904233103 83 110 1.0 6.0 0.00 0.00 0.00 33 1020.9
20260904232554 83 108 3.0 4.0 0.00 0.00 0.00 33 1020.8
20260904232101 83 34 1.0 4.0 0.00 0.00 0.00 33 1020.9
20260904231506 83 89 1.0 4.0 0.00 0.00 0.00 33 1021.0
20260904231100 83 126 1.0 6.0 0.00 0.00 0.00 33 1021.0
20260904230504 83 137 2.0 6.0 0.00 0.00 0.00 33 1021.0
20260904230059 83 152 3.0 6.0 0.00 0.00 0.00 33 1021.1
20260904225546 83 200 1.0 3.0 0.00 0.00 0.00 33 1021.1
20260904225057 83 188 0.0 5.0 0.00 0.00 0.00 33 1021.2
20260904224605 83 187 2.0 5.0 0.00 0.00 0.00 33 1021.1
20260904224007 83 100 2.0 8.0 0.00 0.00 0.00 33 1021.2
20260904223602 83 156 3.0 8.0 0.00 0.00 0.00 33 1021.1
20260904223004 84 167 4.0 9.0 0.00 0.00 0.00 32 1021.2
20260904222600 84 159 3.0 9.0 0.00 0.00 0.00 32 1021.3
20260904222002 84 173 3.0 6.0 0.00 0.00 0.00 32 1021.3
20260904221559 85 165 3.0 6.0 0.00 0.00 0.00 32 1021.4
20260904221002 85 204 1.0 4.0 0.00 0.00 0.00 31 1021.3
20260904220509 85 271 1.0 6.0 0.00 0.00 0.00 31 1021.4
20260904220108 85 240 1.0 6.0 0.00 0.00 0.00 31 1021.4
20260904215552 86 223 2.0 6.0 0.00 0.00 0.00 31 1021.4
20260904215104 86 184 1.0 6.0 0.00 0.00 0.00 31 1021.4
20260904214555 85 58 1.0 6.0 0.00 0.00 0.00 32 1021.4
20260904214101 84 111 1.0 9.0 0.00 0.00 0.00 33 1021.4
20260904213555 84 139 3.0 9.0 0.00 0.00 0.00 32 1021.5
20260904213108 85 126 5.0 9.0 0.00 0.00 0.00 33 1021.5
20260904212507 85 195 2.0 9.0 0.00 0.00 0.00 32 1021.6
20260904212101 85 134 6.0 9.0 0.00 0.00 0.00 33 1021.7
20260904211504 85 144 5.0 11.0 0.00 0.00 0.00 32 1021.7
20260904211059 86 116 4.0 11.0 0.00 0.00 0.00 31 1021.7
20260904210503 87 93 2.0 8.0 0.00 0.00 0.00 30 1021.8
20260904210101 88 101 4.0 9.0 0.00 0.00 0.00 30 1021.8
20260904205551 88 180 4.0 9.0 0.00 0.00 0.00 30 1021.9
20260904205059 88 174 4.0 9.0 0.00 0.00 0.00 30 1021.9
20260904204503 88 128 2.0 12.0 0.00 0.00 0.00 30 1022.1
20260904204010 88 169 3.0 12.0 0.00 0.00 0.00 30 1022.2
20260904203606 88 267 3.0 10.0 0.00 0.00 0.00 30 1022.2
20260904203015 87 296 4.0 9.0 0.00 0.00 0.00 30 1022.4
20260904202605 88 166 6.0 13.0 0.00 0.00 0.00 30 1022.2
20260904202006 88 190 6.0 12.0 0.00 0.00 0.00 29 1022.3
20260904201606 87 197 5.0 12.0 0.00 0.00 0.00 30 1022.3
20260904201054 86 220 3.0 8.0 0.00 0.00 0.00 32 1022.4
20260904200601 86 261 3.0 8.0 0.00 0.00 0.00 32 1022.4
20260904200004 86 214 1.0 5.0 0.00 0.00 0.00 31 1022.6
20260904195512 86 302 1.0 9.0 0.00 0.00 0.00 32 1022.6
20260904195107 85 269 3.0 9.0 0.00 0.00 0.00 31 1022.7
20260904194508 86 168 5.0 9.0 0.00 0.00 0.00 32 1022.8
20260904194104 85 195 3.0 7.0 0.00 0.00 0.00 31 1022.9
20260904193507 85 244 3.0 7.0 0.00 0.00 0.00 32 1023.0
20260904193103 86 235 3.0 9.0 0.00 0.00 0.00 32 1023.1
20260904192558 85 196 4.0 9.0 0.00 0.00 0.00 32 1023.1
20260904192045 85 61 0.0 6.0 0.00 0.00 0.00 33 1023.2
20260904191554 84 269 1.0 6.0 0.00 0.00 0.00 33 1023.2
20260904191101 83 169 1.0 7.0 0.00 0.00 0.00 34 1023.3
20260904190507 83 292 2.0 7.0 0.00 0.00 0.00 34 1023.3
20260904190058 84 225 1.0 9.0 0.00 0.00 0.00 34 1023.4
20260904185504 84 156 5.0 10.0 0.00 0.00 0.00 33 1023.4
20260904185059 84 147 6.0 12.0 0.00 0.00 0.00 34 1023.5
20260904184503 84 172 3.0 11.0 0.00 0.00 0.00 33 1023.5
20260904184100 84 213 3.0 11.0 0.00 0.00 0.00 33 1023.6
20260904183550 84 102 5.0 14.0 0.00 0.00 0.00 33 1023.6
20260904183113 84 180 6.0 11.0 0.00 0.00 0.00 33 1023.7
20260904182501 83 190 3.0 11.0 0.00 0.00 0.00 34 1023.8
20260904182012 82 204 5.0 9.0 0.00 0.00 0.00 35 1023.8
20260904181612 82 46 3.0 9.0 0.00 0.00 0.00 34 1023.9
20260904181008 83 203 5.0 9.0 0.00 0.00 0.00 34 1023.9
20260904180517 83 238 1.0 10.0 0.00 0.00 0.00 35 1024.0
20260904180059 82 200 4.0 8.0 0.00 0.00 0.00 36 1024.0
20260904175549 81 209 0.0 5.0 0.00 0.00 0.00 37 1024.1
20260904175100 80 30 1.0 7.0 0.00 0.00 0.00 37 1024.2
20260904174605 81 288 2.0 7.0 0.00 0.00 0.00 37 1024.2
20260904174006 81 261 3.0 7.0 0.00 0.00 0.00 37 1024.2
20260904173605 81 173 3.0 6.0 0.00 0.00 0.00 37 1024.2
20260904173013 81 153 1.0 8.0 0.00 0.00 0.00 37 1024.2
20260904172606 80 175 3.0 8.0 0.00 0.00 0.00 37 1024.2
20260904172055 81 171 3.0 5.0 0.00 0.00 0.00 37 1024.3
20260904171622 80 186 1.0 6.0 0.00 0.00 0.00 38 1024.2
20260904171055 80 343 3.0 6.0 0.00 0.00 0.00 38 1024.2
20260904170546 79 350 1.0 4.0 0.00 0.00 0.00 39 1024.3
20260904170055 78 343 0.0 5.0 0.00 0.00 0.00 39 1024.1
20260904165603 77 138 3.0 5.0 0.00 0.00 0.00 40 1024.2
20260904165006 78 284 2.0 8.0 0.00 0.00 0.00 41 1024.3
20260904164601 78 279 3.0 8.0 0.00 0.00 0.00 40 1024.2
20260904164003 78 286 4.0 8.0 0.00 0.00 0.00 41 1024.3
20260904163558 78 146 2.0 6.0 0.00 0.00 0.00 41 1024.2
20260904163001 77 278 2.0 4.0 0.00 0.00 0.00 40 1024.2
20260904162559 77 349 1.0 5.0 0.00 0.00 0.00 41 1024.3
20260904162048 77 284 2.0 6.0 0.00 0.00 0.00 41 1024.1
20260904161556 77 292 0.0 6.0 0.00 0.00 0.00 41 1024.2
20260904161106 76 162 2.0 6.0 0.00 0.00 0.00 41 1024.2
20260904160511 76 63 2.0 5.0 0.00 0.00 0.00 42 1024.1
20260904160107 75 61 2.0 4.0 0.00 0.00 0.00 44 1024.1
20260904155506 74 134 0.0 4.0 0.00 0.00 0.00 45 1024.0
20260904155102 73 75 1.0 4.0 0.00 0.00 0.00 47 1024.0
20260904154503 72 61 1.0 3.0 0.00 0.00 0.00 50 1024.1
20260904154015 71 126 1.0 3.0 0.00 0.00 0.00 50 1024.1
20260904153502 70 107 1.0 2.0 0.00 0.00 0.00 51 1024.0
20260904153017 70 96 0.0 2.0 0.00 0.00 0.00 51 1024.0
20260904152501 70 87 0.0 2.0 0.00 0.00 0.00 50 1024.0
20260904152009 70 97 1.0 3.0 0.00 0.00 0.00 50 1024.0
20260904151606 70 111 1.0 3.0 0.00 0.00 0.00 50 1024.0
20260904151054 70 111 1.0 3.0 0.00 0.00 0.00 50 1023.9
20260904150602 70 126 1.0 4.0 0.00 0.00 0.00 50 1023.9
20260904150005 70 86 2.0 6.0 0.00 0.00 0.00 51 1023.8
20260904145513 70 133 2.0 5.0 0.00 0.00 0.00 52 1023.9
20260904145020 69 134 3.0 6.0 0.00 0.00 0.00 52 1023.9
20260904144528 68 138 2.0 6.0 0.00 0.00 0.00 53 1023.8
20260904144036 68 103 3.0 6.0 0.00 0.00 0.00 52 1023.7
20260904143548 68 117 3.0 6.0 0.00 0.00 0.00 51 1023.7
20260904143104 68 99 3.0 6.0 0.00 0.00 0.00 51 1023.7
20260904142600 68 100 3.0 7.0 0.00 0.00 0.00 52 1023.6
20260904142047 67 144 4.0 6.0 0.00 0.00 0.00 52 1023.6
20260904141605 66 115 2.0 6.0 0.00 0.00 0.00 52 1023.5
20260904141106 66 90 4.0 6.0 0.00 0.00 0.00 52 1023.5
20260904140505 65 120 3.0 7.0 0.00 0.00 0.00 52 1023.5
20260904140030 65 119 3.0 7.0 0.00 0.00 0.00 53 1023.5
20260904135505 64 115 3.0 6.0 0.00 0.00 0.00 53 1023.4
20260904135012 64 133 2.0 6.0 0.00 0.00 0.00 54 1023.3
20260904134501 64 105 2.0 4.0 0.00 0.00 0.00 54 1023.3
20260904134009 63 82 2.0 4.0 0.00 0.00 0.00 54 1023.2
20260904133608 63 104 2.0 7.0 0.00 0.00 0.00 55 1023.2
20260904133057 63 101 2.0 7.0 0.00 0.00 0.00 55 1023.1
20260904132605 62 101 3.0 6.0 0.00 0.00 0.00 56 1023.1
20260904132056 62 103 2.0 6.0 0.00 0.00 0.00 57 1023.0
20260904131548 62 94 3.0 6.0 0.00 0.00 0.00 57 1022.9
20260904131055 62 103 2.0 3.0 0.00 0.00 0.00 57 1022.9
20260904130604 62 119 0.0 1.0 0.00 0.00 0.00 57 1022.8
20260904130007 62 119 0.0 2.0 0.00 0.00 0.00 56 1022.8
20260904125603 62 119 0.0 3.0 0.00 0.00 0.00 56 1022.7
20260904125007 62 117 1.0 4.0 0.00 0.00 0.00 56 1022.6
20260904124603 62 138 2.0 6.0 0.00 0.00 0.00 56 1022.5
20260904124004 62 123 3.0 6.0 0.00 0.00 0.00 56 1022.5
20260904123600 62 101 2.0 5.0 0.00 0.00 0.00 56 1022.4
20260904123049 62 117 4.0 6.0 0.00 0.00 0.00 56 1022.4
20260904122558 62 123 3.0 6.0 0.00 0.00 0.00 57 1022.3
20260904122049 62 111 3.0 6.0 0.00 0.00 0.00 57 1022.2
20260904121559 62 107 4.0 6.0 0.00 0.00 0.00 57 1022.2
20260904121051 62 106 4.0 5.0 0.00 0.00 0.00 57 1022.2
20260904120540 63 101 3.0 6.0 0.00 0.00 0.00 57 1022.2
20260904120051 63 91 3.0 4.0 0.00 0.00 0.00 56 1022.2
20260904115558 63 102 2.0 4.0 0.00 0.00 0.00 55 1022.2
20260904115106 63 105 2.0 5.0 0.00 0.00 0.00 55 1022.2
20260904114555 63 105 3.0 5.0 0.00 0.00 0.00 54 1022.0
20260904114102 64 72 3.0 5.0 0.00 0.00 0.00 54 1021.9
20260904113555 64 82 3.0 5.0 0.00 0.00 0.00 54 1022.0
20260904113103 64 84 4.0 8.0 0.00 0.00 0.00 54 1022.0
20260904112509 64 107 3.0 8.0 0.00 0.00 0.00 54 1022.0
20260904112100 64 71 3.0 6.0 0.00 0.00 0.00 54 1021.9
20260904111504 64 79 3.0 5.0 0.00 0.00 0.00 54 1021.9
20260904111012 64 95 2.0 5.0 0.00 0.00 0.00 54 1022.0
20260904110520 64 104 2.0 5.0 0.00 0.00 0.00 54 1021.9
20260904110027 64 96 2.0 5.0 0.00 0.00 0.00 54 1022.0
20260904105538 64 63 2.0 8.0 0.00 0.00 0.00 54 1022.0
20260904105045 64 78 4.0 8.0 0.00 0.00 0.00 55 1021.9
20260904104556 64 83 3.0 7.0 0.00 0.00 0.00 55 1021.9
20260904104042 64 77 3.0 6.0 0.00 0.00 0.00 56 1021.9
20260904103549 64 68 3.0 5.0 0.00 0.00 0.00 56 1021.8
20260904103057 64 84 2.0 5.0 0.00 0.00 0.00 55 1021.9
20260904102605 64 92 3.0 6.0 0.00 0.00 0.00 55 1021.8
20260904102008 64 71 4.0 6.0 0.00 0.00 0.00 56 1021.8
20260904101516 64 92 2.0 6.0 0.00 0.00 0.00 57 1021.7
20260904101023 65 87 3.0 7.0 0.00 0.00 0.00 57 1021.7
20260904100530 65 119 3.0 4.0 0.00 0.00 0.00 58 1021.5
20260904100009 65 96 2.0 4.0 0.00 0.00 0.00 58 1021.5
20260904095602 65 98 2.0 4.0 0.00 0.00 0.00 59 1021.3
20260904095103 65 78 1.0 3.0 0.00 0.00 0.00 60 1021.4
20260904094506 65 94 0.0 2.0 0.00 0.00 0.00 60 1021.3
20260904094013 65 65 0.0 2.0 0.00 0.00 0.00 60 1021.2
20260904093521 65 65 1.0 4.0 0.00 0.00 0.00 60 1021.2
20260904093029 65 80 1.0 4.0 0.00 0.00 0.00 60 1021.3
20260904092536 65 101 2.0 4.0 0.00 0.00 0.00 60 1021.1
20260904092044 65 89 2.0 3.0 0.00 0.00 0.00 60 1021.2
20260904091552 65 5 0.0 2.0 0.00 0.00 0.00 59 1021.2
20260904091042 65 5 0.0 2.0 0.00 0.00 0.00 59 1021.2
20260904090550 66 5 0.0 2.0 0.00 0.00 0.00 59 1021.2
20260904090108 66 5 0.0 2.0 0.00 0.00 0.00 59 1021.1
20260904085502 66 5 0.0 2.0 0.00 0.00 0.00 59 1021.0
20260904085056 66 5 1.0 2.0 0.00 0.00 0.00 58 1021.0
20260904084612 66 116 1.0 2.0 0.00 0.00 0.00 58 1021.1
20260904084100 66 116 0.0 2.0 0.00 0.00 0.00 57 1021.2
20260904083604 67 116 0.0 2.0 0.00 0.00 0.00 57 1021.2
20260904083057 67 116 0.0 2.0 0.00 0.00 0.00 57 1021.2
20260904082550 67 116 0.0 2.0 0.00 0.00 0.00 57 1021.3
20260904082055 67 116 1.0 3.0 0.00 0.00 0.00 56 1021.3
20260904081603 67 116 2.0 3.0 0.00 0.00 0.00 56 1021.3
20260904081005 68 129 2.0 2.0 0.00 0.00 0.00 55 1021.3
20260904080602 68 129 1.0 2.0 0.00 0.00 0.00 55 1021.3
20260904080004 68 129 1.0 3.0 0.00 0.00 0.00 55 1021.3
20260904075600 68 129 2.0 3.0 0.00 0.00 0.00 55 1021.2
20260904075006 69 124 1.0 3.0 0.00 0.00 0.00 54 1021.3
20260904074607 69 140 1.0 3.0 0.00 0.00 0.00 54 1021.2
20260904074051 69 140 1.0 3.0 0.00 0.00 0.00 54 1021.2
20260904073600 69 151 1.0 4.0 0.00 0.00 0.00 54 1021.3
20260904073052 69 161 2.0 6.0 0.00 0.00 0.00 54 1021.3
20260904072542 69 142 3.0 6.0 0.00 0.00 0.00 53 1021.2
20260904072049 70 143 1.0 3.0 0.00 0.00 0.00 53 1021.2
20260904071607 70 159 1.0 4.0 0.00 0.00 0.00 53 1021.2
20260904071001 70 165 3.0 5.0 0.00 0.00 0.00 52 1021.3
20260904070557 71 141 3.0 4.0 0.00 0.00 0.00 52 1021.2
20260904070107 71 161 1.0 3.0 0.00 0.00 0.00 51 1021.3
20260904065554 71 185 1.0 6.0 0.00 0.00 0.00 51 1021.3
20260904065104 71 169 3.0 6.0 0.00 0.00 0.00 51 1021.3
20260904064555 71 151 3.0 6.0 0.00 0.00 0.00 51 1021.3
20260904064047 71 168 3.0 7.0 0.00 0.00 0.00 51 1021.2
20260904063555 71 142 4.0 7.0 0.00 0.00 0.00 50 1021.2
20260904063045 72 155 3.0 8.0 0.00 0.00 0.00 50 1021.1
20260904062553 72 142 3.0 8.0 0.00 0.00 0.00 50 1021.1
20260904062103 72 166 4.0 9.0 0.00 0.00 0.00 50 1021.1
20260904061504 72 154 5.0 9.0 0.00 0.00 0.00 50 1021.0
20260904061059 72 165 4.0 8.0 0.00 0.00 0.00 49 1021.1
20260904060504 72 171 4.0 8.0 0.00 0.00 0.00 49 1021.0
20260904060010 72 126 5.0 10.0 0.00 0.00 0.00 49 1021.0
20260904055604 72 145 4.0 10.0 0.00 0.00 0.00 49 1021.0
20260904055008 72 124 4.0 9.0 0.00 0.00 0.00 49 1021.1
20260904054606 72 160 5.0 9.0 0.00 0.00 0.00 49 1021.1
20260904054007 73 173 3.0 11.0 0.00 0.00 0.00 49 1021.1
20260904053603 73 146 5.0 11.0 0.00 0.00 0.00 49 1021.0
20260904053102 73 150 6.0 11.0 0.00 0.00 0.00 48 1021.0
20260904052603 73 162 5.0 10.0 0.00 0.00 0.00 48 1020.9
20260904052056 73 167 6.0 11.0 0.00 0.00 0.00 47 1021.0
20260904051546 74 161 3.0 9.0 0.00 0.00 0.00 47 1021.0
20260904051054 74 167 5.0 9.0 0.00 0.00 0.00 46 1021.0
20260904050603 74 160 3.0 7.0 0.00 0.00 0.00 47 1021.0
20260904050005 74 180 4.0 11.0 0.00 0.00 0.00 47 1020.9
20260904045559 74 144 6.0 14.0 0.00 0.00 0.00 47 1021.0
20260904045003 74 156 7.0 14.0 0.00 0.00 0.00 47 1021.0
20260904044600 75 173 7.0 11.0 0.00 0.00 0.00 46 1021.0
20260904044003 75 157 7.0 10.0 0.00 0.00 0.00 45 1021.0
20260904043602 75 192 6.0 15.0 0.00 0.00 0.00 45 1021.0
20260904043104 75 164 8.0 15.0 0.00 0.00 0.00 46 1021.0
20260904042604 75 151 6.0 15.0 0.00 0.00 0.00 46 1020.9
20260904042053 75 161 7.0 16.0 0.00 0.00 0.00 45 1021.0
20260904041601 75 140 8.0 16.0 0.00 0.00 0.00 44 1021.0
20260904041053 75 163 8.0 13.0 0.00 0.00 0.00 40 1021.0
20260904040543 75 121 2.0 4.0 0.00 0.00 0.00 35 1021.0
20260904040051 76 139 3.0 8.0 0.00 0.00 0.00 35 1020.8
20260904035559 76 143 4.0 8.0 0.00 0.00 0.00 35 1020.9
20260904035003 76 121 2.0 3.0 0.00 0.00 0.00 34 1020.8
20260904034557 76 110 2.0 2.0 0.00 0.00 0.00 34 1020.7
20260904034105 76 126 1.0 2.0 0.00 0.00 0.00 34 1020.7
20260904033559 76 126 1.0 2.0 0.00 0.00 0.00 34 1020.7
20260904033105 76 126 1.0 2.0 0.00 0.00 0.00 33 1020.7
20260904032558 76 126 1.0 2.0 0.00 0.00 0.00 33 1020.6
20260904032050 76 132 1.0 3.0 0.00 0.00 0.00 33 1020.6
20260904031558 76 132 2.0 3.0 0.00 0.00 0.00 33 1020.5
20260904031054 76 161 1.0 2.0 0.00 0.00 0.00 32 1020.5
20260904030541 76 174 1.0 1.0 0.00 0.00 0.00 32 1020.4
20260904030049 76 263 0.0 0.0 0.00 0.00 0.00 32 1020.3
20260904025559 76 263 0.0 0.0 0.00 0.00 0.00 32 1020.3
20260904025105 77 263 0.0 0.0 0.00 0.00 0.00 32 1020.3
20260904024556 77 263 0.0 0.0 0.00 0.00 0.00 32 1020.3
20260904024105 77 263 0.0 0.0 0.00 0.00 0.00 31 1020.2
20260904023556 77 263 0.0 0.0 0.00 0.00 0.00 31 1020.1
20260904023105 78 263 0.0 0.0 0.00 0.00 0.00 31 1020.1
20260904022558 78 263 0.0 0.0 0.00 0.00 0.00 31 1020.2
20260904022046 78 263 0.0 0.0 0.00 0.00 0.00 31 1020.1
20260904021557 79 263 0.0 0.0 0.00 0.00 0.00 30 1020.0
20260904021102 79 263 0.0 0.0 0.00 0.00 0.00 30 1020.0
20260904020505 79 263 0.0 0.0 0.00 0.00 0.00 30 1019.9
20260904020028 80 263 0.0 0.0 0.00 0.00 0.00 29 1019.9
20260904015536 80 263 0.0 0.0 0.00 0.00 0.00 29 1019.9
20260904015044 80 263 0.0 0.0 0.00 0.00 0.00 29 1020.0